Location: Bothwell
(42.3833°S, 147.0000°E)
Time: 14:52:43
(UTC+10:00)

XW-2F - Visible Passes

Search period start: 31 May 2023 00:00
Search period end: 10 June 2023 00:00
Orbit: 448 x 463 km, 97.5° (Epoch: 30 May)

Date Brightness Start Highest point End Pass type
(mag) Time Alt. Az. Time Alt. Az. Time Alt. Az.
31 May ? 06:13:20 10° N 06:16:44 66° W 06:20:13 10° SSW visible
31 May ? 19:13:39 22° NNW 19:13:39 22° NNW 19:15:01 10° NNW visible
01 Jun ? 05:40:18 10° NE 05:43:32 41° ESE 05:46:52 10° S visible
01 Jun ? 18:40:05 22° NNE 18:40:05 22° NNE 18:41:35 10° N visible
02 Jun ? 05:08:12 10° ENE 05:10:28 17° ESE 05:12:45 10° SSE visible
02 Jun ? 06:40:04 10° NNW 06:43:05 28° W 06:46:10 10° SW visible
02 Jun ? 18:06:28 12° NE 18:06:28 12° NE 18:07:01 10° NE visible
02 Jun ? 19:40:14 13° NW 19:40:14 13° NW 19:40:46 10° NW visible
03 Jun ? 06:06:14 10° NNE 06:09:40 84° WNW 06:13:11 10° SSW visible
03 Jun ? 19:06:34 22° NNW 19:06:34 22° NNW 19:07:55 10° NNW visible
04 Jun ? 05:33:15 10° NE 05:36:23 33° ESE 05:39:34 10° S visible
04 Jun ? 18:32:52 19° NNE 18:32:52 19° NNE 18:34:09 10° NNE visible
05 Jun ? 05:01:24 10° E 05:03:13 14° ESE 05:05:03 10° SE visible
05 Jun ? 06:32:31 10° NNW 06:35:43 36° W 06:38:58 10° SSW visible
05 Jun ? 19:32:51 15° NW 19:32:51 15° NW 19:33:33 10° NW visible
06 Jun ? 05:58:46 10° NNE 06:02:12 75° ESE 06:05:42 10° S visible
06 Jun ? 18:59:03 22° N 18:59:03 22° N 19:00:22 10° N visible
07 Jun ? 05:25:53 10° NE 05:28:49 26° ESE 05:31:47 10° SSE visible
07 Jun ? 06:59:17 10° NW 07:01:40 17° W 07:04:05 10° SW visible
07 Jun ? 18:25:12 16° NE 18:25:12 16° NE 18:26:13 10° NNE visible
08 Jun ? 04:54:30 10° E 04:55:33 11° ESE 04:56:37 10° SE visible
08 Jun ? 06:24:36 10° N 06:27:56 47° W 06:31:20 10° SSW visible
08 Jun ? 19:25:02 16° NW 19:25:02 16° NW 19:25:53 10° NNW visible
09 Jun ? 05:50:57 10° NNE 05:54:20 57° ESE 05:57:34 11° S visible
09 Jun ? 18:51:05 21° N 18:51:05 21° N 18:52:21 10° N visible
